User: anonymous   Login
Location: Los Gatos B&B
(42.6926°N, 77.0646°W)
Time: 14:46:17
(UTC-05:00)
Language:

SL-16 R/B - Orbit

View from above orbital plane
View from above orbital plane
View from above satellite
View from above satellite

Ground track
Ground track

The orbit data is extracted from the following two-line orbital elements,

1 28353U 04021B   18055.94591896 -.00000272 +00000-0 -11775-3 0  9995
2 28353 070.9985 268.3837 0005488 203.4698 156.6175 14.14207292707888
Epoch (UTC): 24 February 2018 22:42:07
Eccentricity: 0.0005488
inclination: 70.9985°
perigee height: 841 km
apogee height: 849 km
right ascension of ascending node: 268.3837°
argument of perigee: 203.4698°
revolutions per day: 14.14207292
mean anomaly at epoch: 156.6175°
orbit number at epoch: 70788

The dashed part of the orbit path shows where the satellite is in the earth's shadow,  

DLR